Time,TemperatureF,DewpointF,PressureIn,WindDirection,WindDirectionDegrees,WindSpeedMPH,WindSpeedGustMPH,Humidity,HourlyPrecipIn,Conditions,Clouds,dailyrainin,SolarRadiationWatts/m^2,SoftwareType,DateUTC
2013-09-20 00:22:00,34.0,26.0,-100.00,NE,46,3.0,11.0,71,0.00,,,0.25,0.000000,,2013-09-20 08:22:00,
2013-09-20 00:32:00,34.0,26.0,-100.00,NE,46,3.0,11.0,71,0.00,,,0.25,0.000000,,2013-09-20 08:32:00,
2013-09-20 00:42:00,34.0,26.0,-100.00,NE,46,3.0,11.0,71,0.00,,,0.25,0.000000,,2013-09-20 08:42:00,
2013-09-20 00:52:00,34.0,26.0,-100.00,NE,46,3.0,11.0,71,0.00,,,0.25,0.000000,,2013-09-20 08:52:00,
2013-09-20 01:22:00,31.0,25.0,-100.00,NNE,30,4.0,9.0,78,0.00,,,0.22,0.000000,,2013-09-20 09:22:00,
2013-09-20 01:33:00,31.0,25.0,-100.00,NNE,30,4.0,9.0,78,0.00,,,0.22,0.000000,,2013-09-20 09:33:00,
2013-09-20 01:43:00,31.0,25.0,-100.00,NNE,30,4.0,9.0,78,0.00,,,0.22,0.000000,,2013-09-20 09:43:00,
2013-09-20 01:53:00,31.0,25.0,-100.00,NNE,30,4.0,9.0,78,0.00,,,0.22,0.000000,,2013-09-20 09:53:00,
2013-09-20 02:23:00,30.0,24.0,-100.00,NE,49,5.0,10.0,77,0.00,,,0.20,0.000000,,2013-09-20 10:23:00,
2013-09-20 02:32:00,30.0,24.0,-100.00,NE,49,5.0,10.0,77,0.00,,,0.20,0.000000,,2013-09-20 10:32:00,
2013-09-20 02:42:00,30.0,24.0,-100.00,NE,49,5.0,10.0,77,0.00,,,0.20,0.000000,,2013-09-20 10:42:00,
2013-09-20 02:53:00,30.0,24.0,-100.00,NE,49,5.0,10.0,77,0.00,,,0.20,0.000000,,2013-09-20 10:53:00,
2013-09-20 03:23:00,30.0,25.0,-100.00,NE,40,4.0,9.0,80,0.00,,,0.20,0.000000,,2013-09-20 11:23:00,
2013-09-20 03:33:00,30.0,25.0,-100.00,NE,40,4.0,9.0,80,0.00,,,0.20,0.000000,,2013-09-20 11:33:00,
2013-09-20 03:42:00,30.0,25.0,-100.00,NE,40,4.0,9.0,80,0.00,,,0.20,0.000000,,2013-09-20 11:42:00,
2013-09-20 03:52:00,30.0,25.0,-100.00,NE,40,4.0,9.0,80,0.00,,,0.20,0.000000,,2013-09-20 11:52:00,
2013-09-20 04:22:00,28.0,24.0,-100.00,NE,52,4.0,10.0,83,0.00,,,0.19,0.000000,,2013-09-20 12:22:00,
2013-09-20 04:32:00,28.0,24.0,-100.00,NE,52,4.0,10.0,83,0.00,,,0.19,0.000000,,2013-09-20 12:32:00,
2013-09-20 04:42:00,28.0,24.0,-100.00,NE,52,4.0,10.0,83,0.00,,,0.19,0.000000,,2013-09-20 12:42:00,
2013-09-20 04:52:00,28.0,24.0,-100.00,NE,52,4.0,10.0,83,0.00,,,0.19,0.000000,,2013-09-20 12:52:00,
2013-09-20 05:21:00,27.0,21.0,-100.00,ENE,63,4.0,12.0,79,0.00,,,0.18,0.000000,,2013-09-20 13:21:00,
2013-09-20 05:32:00,27.0,21.0,-100.00,ENE,63,4.0,12.0,79,0.00,,,0.18,0.000000,,2013-09-20 13:32:00,
2013-09-20 05:42:00,27.0,21.0,-100.00,ENE,63,4.0,12.0,79,0.00,,,0.18,0.000000,,2013-09-20 13:42:00,
2013-09-20 05:52:00,27.0,21.0,-100.00,ENE,63,4.0,12.0,79,0.00,,,0.18,0.000000,,2013-09-20 13:52:00,
2013-09-20 06:21:00,27.0,21.0,-100.00,NE,37,0.0,10.0,79,0.00,,,0.15,0.000000,,2013-09-20 14:21:00,
2013-09-20 06:32:00,27.0,21.0,-100.00,NE,37,0.0,10.0,79,0.00,,,0.15,0.000000,,2013-09-20 14:32:00,
2013-09-20 06:42:00,27.0,21.0,-100.00,NE,37,0.0,10.0,79,0.00,,,0.15,0.000000,,2013-09-20 14:42:00,
2013-09-20 06:52:00,27.0,21.0,-100.00,NE,37,0.0,10.0,79,0.00,,,0.15,0.000000,,2013-09-20 14:52:00,
2013-09-20 07:21:00,30.0,25.0,-100.00,NNE,27,0.0,0.0,80,0.00,,,0.01,0.000000,,2013-09-20 15:21:00,
2013-09-20 07:33:00,30.0,25.0,-100.00,NNE,27,0.0,0.0,80,0.00,,,0.01,0.000000,,2013-09-20 15:33:00,
2013-09-20 07:44:00,30.0,25.0,-100.00,NNE,27,0.0,0.0,80,0.00,,,0.01,0.000000,,2013-09-20 15:44:00,
2013-09-20 07:53:00,30.0,25.0,-100.00,NNE,27,0.0,0.0,80,0.00,,,0.01,0.000000,,2013-09-20 15:53:00,
2013-09-20 08:23:00,27.0,20.0,-100.00,NE,41,0.0,0.0,75,0.00,,,0.00,3.000000,,2013-09-20 16:23:00,
2013-09-20 08:42:00,27.0,20.0,-100.00,NE,41,0.0,0.0,75,0.00,,,0.00,3.000000,,2013-09-20 16:42:00,
2013-09-20 08:52:00,27.0,20.0,-100.00,NE,41,0.0,0.0,75,0.00,,,0.00,3.000000,,2013-09-20 16:52:00,
2013-09-20 09:23:00,28.0,21.0,-100.00,SSW,195,0.0,0.0,75,0.00,,,0.00,16.000000,,2013-09-20 17:23:00,
2013-09-20 09:34:00,28.0,21.0,-100.00,SSW,195,0.0,0.0,75,0.00,,,0.00,16.000000,,2013-09-20 17:34:00,
2013-09-20 09:42:00,28.0,21.0,-100.00,SSW,195,0.0,0.0,75,0.00,,,0.00,16.000000,,2013-09-20 17:42:00,
2013-09-20 09:53:00,28.0,21.0,-100.00,SSW,195,0.0,0.0,75,0.00,,,0.00,16.000000,,2013-09-20 17:53:00,
2013-09-20 10:22:00,32.0,23.0,-100.00,NNE,17,3.0,7.0,69,0.00,,,0.00,131.000000,,2013-09-20 18:22:00,
2013-09-20 10:32:00,32.0,23.0,-100.00,NNE,17,3.0,7.0,69,0.00,,,0.00,131.000000,,2013-09-20 18:32:00,
2013-09-20 10:42:00,32.0,23.0,-100.00,NNE,17,3.0,7.0,69,0.00,,,0.00,131.000000,,2013-09-20 18:42:00,
2013-09-20 10:52:00,32.0,23.0,-100.00,NNE,17,3.0,7.0,69,0.00,,,0.00,131.000000,,2013-09-20 18:52:00,
2013-09-20 11:22:00,37.0,24.0,-100.00,North,0,2.0,6.0,58,0.00,,,0.00,307.000000,,2013-09-20 19:22:00,
2013-09-20 11:32:00,37.0,24.0,-100.00,North,0,2.0,6.0,58,0.00,,,0.00,307.000000,,2013-09-20 19:32:00,
2013-09-20 11:42:00,37.0,24.0,-100.00,North,0,2.0,6.0,58,0.00,,,0.00,307.000000,,2013-09-20 19:42:00,
2013-09-20 11:52:00,37.0,24.0,-100.00,North,0,2.0,6.0,58,0.00,,,0.00,307.000000,,2013-09-20 19:52:00,
2013-09-20 12:22:00,39.0,24.0,-100.00,NNW,333,3.0,6.0,54,0.00,,,0.00,408.000000,,2013-09-20 20:22:00,
2013-09-20 12:32:00,39.0,24.0,-100.00,NNW,333,3.0,6.0,54,0.00,,,0.00,408.000000,,2013-09-20 20:32:00,
2013-09-20 12:42:00,39.0,24.0,-100.00,NNW,333,3.0,6.0,54,0.00,,,0.00,408.000000,,2013-09-20 20:42:00,
2013-09-20 12:52:00,39.0,24.0,-100.00,NNW,333,3.0,6.0,54,0.00,,,0.00,408.000000,,2013-09-20 20:52:00,
2013-09-20 13:21:00,41.0,25.0,-100.00,North,358,4.0,8.0,52,0.00,,,0.00,481.000000,,2013-09-20 21:21:00,
2013-09-20 13:34:00,41.0,25.0,-100.00,North,358,4.0,8.0,52,0.00,,,0.00,481.000000,,2013-09-20 21:34:00,
2013-09-20 13:44:00,41.0,25.0,-100.00,North,358,4.0,8.0,52,0.00,,,0.00,481.000000,,2013-09-20 21:44:00,
2013-09-20 13:54:00,41.0,25.0,-100.00,North,358,4.0,8.0,52,0.00,,,0.00,481.000000,,2013-09-20 21:54:00,
2013-09-20 14:23:00,42.0,24.0,-100.00,North,353,4.0,8.0,48,0.00,,,0.00,519.000000,,2013-09-20 22:23:00,
2013-09-20 14:33:00,42.0,24.0,-100.00,North,353,4.0,8.0,48,0.00,,,0.00,519.000000,,2013-09-20 22:33:00,
2013-09-20 14:43:00,42.0,24.0,-100.00,North,353,4.0,8.0,48,0.00,,,0.00,519.000000,,2013-09-20 22:43:00,
2013-09-20 14:53:00,42.0,24.0,-100.00,North,353,4.0,8.0,48,0.00,,,0.00,519.000000,,2013-09-20 22:53:00,
2013-09-20 15:22:00,44.0,24.0,-100.00,NW,309,4.0,9.0,45,0.00,,,0.00,519.000000,,2013-09-20 23:22:00,
2013-09-20 15:34:00,44.0,24.0,-100.00,NW,309,4.0,9.0,45,0.00,,,0.00,519.000000,,2013-09-20 23:34:00,
2013-09-20 15:42:00,44.0,24.0,-100.00,NW,309,4.0,9.0,45,0.00,,,0.00,519.000000,,2013-09-20 23:42:00,
2013-09-20 15:53:00,44.0,24.0,-100.00,NW,309,4.0,9.0,45,0.00,,,0.00,519.000000,,2013-09-20 23:53:00,
2013-09-20 16:21:00,45.0,24.0,-100.00,WNW,299,3.0,7.0,43,0.00,,,0.00,477.000000,,2013-09-21 00:21:00,
2013-09-20 16:32:00,45.0,24.0,-100.00,WNW,299,3.0,7.0,43,0.00,,,0.00,477.000000,,2013-09-21 00:32:00,
2013-09-20 16:42:00,45.0,24.0,-100.00,WNW,299,3.0,7.0,43,0.00,,,0.00,477.000000,,2013-09-21 00:42:00,
2013-09-20 16:52:00,45.0,24.0,-100.00,WNW,299,3.0,7.0,43,0.00,,,0.00,477.000000,,2013-09-21 00:52:00,
2013-09-20 17:22:00,45.0,22.0,-100.00,NW,323,4.0,7.0,40,0.00,,,0.00,402.000000,,2013-09-21 01:22:00,
2013-09-20 17:32:00,45.0,22.0,-100.00,NW,323,4.0,7.0,40,0.00,,,0.00,402.000000,,2013-09-21 01:32:00,
2013-09-20 17:42:00,45.0,22.0,-100.00,NW,323,4.0,7.0,40,0.00,,,0.00,402.000000,,2013-09-21 01:42:00,
2013-09-20 17:52:00,45.0,22.0,-100.00,NW,323,4.0,7.0,40,0.00,,,0.00,402.000000,,2013-09-21 01:52:00,
2013-09-20 18:22:00,44.0,21.0,-100.00,North,352,4.0,7.0,39,0.00,,,0.00,302.000000,,2013-09-21 02:22:00,
2013-09-20 18:32:00,44.0,21.0,-100.00,North,352,4.0,7.0,39,0.00,,,0.00,302.000000,,2013-09-21 02:32:00,
2013-09-20 18:42:00,44.0,21.0,-100.00,North,352,4.0,7.0,39,0.00,,,0.00,302.000000,,2013-09-21 02:42:00,
2013-09-20 18:52:00,44.0,21.0,-100.00,North,352,4.0,7.0,39,0.00,,,0.00,302.000000,,2013-09-21 02:52:00,
2013-09-20 19:22:00,41.0,21.0,-100.00,North,7,3.0,8.0,44,0.00,,,0.00,178.000000,,2013-09-21 03:22:00,
2013-09-20 19:34:00,41.0,21.0,-100.00,North,7,3.0,8.0,44,0.00,,,0.00,178.000000,,2013-09-21 03:34:00,
2013-09-20 19:44:00,41.0,21.0,-100.00,North,7,3.0,8.0,44,0.00,,,0.00,178.000000,,2013-09-21 03:44:00,
2013-09-20 19:54:00,41.0,21.0,-100.00,North,7,3.0,8.0,44,0.00,,,0.00,178.000000,,2013-09-21 03:54:00,
2013-09-20 20:24:00,34.0,23.0,-100.00,NE,45,3.0,6.0,64,0.00,,,0.00,27.000000,,2013-09-21 04:24:00,
2013-09-20 20:33:00,34.0,23.0,-100.00,NE,45,3.0,6.0,64,0.00,,,0.00,27.000000,,2013-09-21 04:33:00,
2013-09-20 20:43:00,34.0,23.0,-100.00,NE,45,3.0,6.0,64,0.00,,,0.00,27.000000,,2013-09-21 04:43:00,
2013-09-20 20:54:00,34.0,23.0,-100.00,NE,45,3.0,6.0,64,0.00,,,0.00,27.000000,,2013-09-21 04:54:00,
2013-09-20 21:23:00,35.0,23.0,-100.00,NE,43,4.0,10.0,61,0.00,,,0.00,1.000000,,2013-09-21 05:23:00,
2013-09-20 21:34:00,35.0,23.0,-100.00,NE,43,4.0,10.0,61,0.00,,,0.00,1.000000,,2013-09-21 05:34:00,
2013-09-20 21:43:00,35.0,23.0,-100.00,NE,43,4.0,10.0,61,0.00,,,0.00,1.000000,,2013-09-21 05:43:00,
2013-09-20 21:52:00,35.0,23.0,-100.00,NE,43,4.0,10.0,61,0.00,,,0.00,1.000000,,2013-09-21 05:52:00,
2013-09-20 22:22:00,35.0,22.0,-100.00,East,96,3.0,9.0,58,0.00,,,0.00,0.000000,,2013-09-21 06:22:00,
2013-09-20 22:32:00,35.0,22.0,-100.00,East,96,3.0,9.0,58,0.00,,,0.00,0.000000,,2013-09-21 06:32:00,
2013-09-20 22:42:00,35.0,22.0,-100.00,East,96,3.0,9.0,58,0.00,,,0.00,0.000000,,2013-09-21 06:42:00,
2013-09-20 22:52:00,35.0,22.0,-100.00,East,96,3.0,9.0,58,0.00,,,0.00,0.000000,,2013-09-21 06:52:00,
2013-09-20 23:21:00,35.0,20.0,-100.00,NNE,12,0.0,1.0,54,0.00,,,0.00,0.000000,,2013-09-21 07:21:00,
2013-09-20 23:32:00,35.0,20.0,-100.00,NNE,12,0.0,1.0,54,0.00,,,0.00,0.000000,,2013-09-21 07:32:00,
2013-09-20 23:42:00,35.0,20.0,-100.00,NNE,12,0.0,1.0,54,0.00,,,0.00,0.000000,,2013-09-21 07:42:00,
2013-09-20 23:52:00,35.0,20.0,-100.00,NNE,12,0.0,1.0,54,0.00,,,0.00,0.000000,,2013-09-21 07:52:00,